Time,TemperatureF,DewpointF,PressureIn,WindDirection,WindDirectionDegrees,WindSpeedMPH,WindSpeedGustMPH,Humidity,HourlyPrecipIn,Conditions,Clouds,dailyrainin,SoftwareType,DateUTC
2013-02-03 00:04:00,-999.0,-99.9,-100.00,SW,224,2.0,2.0,-999,-99.99,,,-99.99,,2013-02-03 05:04:00,
2013-02-03 00:12:00,-999.0,-99.9,-100.00,WSW,253,3.0,4.0,-999,-99.99,,,-99.99,,2013-02-03 05:12:00,
2013-02-03 00:23:00,-999.0,-99.9,-100.00,SSW,199,2.0,4.0,-999,-99.99,,,-99.99,,2013-02-03 05:23:00,
2013-02-03 00:32:00,25.0,-99.9,30.05,SSE,155,1.0,2.0,-999,-99.99,,,-99.99,,2013-02-03 05:32:00,
2013-02-03 00:42:00,-999.0,-99.9,-100.00,ENE,77,1.0,2.0,-999,-99.99,,,-99.99,,2013-02-03 05:42:00,
2013-02-03 00:53:00,-999.0,-99.9,-100.00,East,83,1.0,2.0,-999,-99.99,,,-99.99,,2013-02-03 05:53:00,
2013-02-03 01:02:00,25.0,-99.9,30.03,SSE,153,0.0,2.0,-999,-99.99,,,-99.99,,2013-02-03 06:02:00,
2013-02-03 01:22:00,-999.0,-99.9,-100.00,SE,131,1.0,2.0,-999,-99.99,,,-99.99,,2013-02-03 06:22:00,
2013-02-03 01:32:00,25.0,-99.9,30.02,SE,124,1.0,2.0,-999,-99.99,,,-99.99,,2013-02-03 06:32:00,
2013-02-03 01:42:00,-999.0,-99.9,-100.00,SE,139,2.0,2.0,-999,-99.99,,,-99.99,,2013-02-03 06:42:00,
2013-02-03 01:52:00,-999.0,-99.9,-100.00,SE,130,1.0,2.0,-999,-99.99,,,-99.99,,2013-02-03 06:52:00,
2013-02-03 02:02:00,-999.0,-99.9,-100.00,SE,140,2.0,3.0,-999,-99.99,,,-99.99,,2013-02-03 07:02:00,
2013-02-03 02:11:00,25.0,-99.9,30.01,SSE,150,2.0,3.0,-999,-99.99,,,-99.99,,2013-02-03 07:11:00,
2013-02-03 02:22:00,-999.0,-99.9,-100.00,SSE,149,2.0,3.0,-999,-99.99,,,-99.99,,2013-02-03 07:22:00,
2013-02-03 02:32:00,25.0,-99.9,30.00,SSE,154,2.0,3.0,-999,-99.99,,,-99.99,,2013-02-03 07:32:00,
2013-02-03 02:42:00,-999.0,-99.9,-100.00,SSE,154,2.0,3.0,-999,-99.99,,,-99.99,,2013-02-03 07:42:00,
2013-02-03 02:53:00,-999.0,-99.9,-100.00,SSE,161,2.0,3.0,-999,-99.99,,,-99.99,,2013-02-03 07:53:00,
2013-02-03 03:02:00,25.0,-99.9,29.99,SE,145,2.0,4.0,-999,-99.99,,,-99.99,,2013-02-03 08:02:00,
2013-02-03 03:11:00,-999.0,-99.9,-100.00,ENE,64,2.0,3.0,-999,-99.99,,,-99.99,,2013-02-03 08:11:00,
2013-02-03 03:22:00,-999.0,-99.9,-100.00,East,83,2.0,4.0,-999,-99.99,,,-99.99,,2013-02-03 08:22:00,
2013-02-03 03:32:00,25.0,-99.9,29.97,ENE,66,2.0,3.0,-999,-99.99,,,-99.99,,2013-02-03 08:32:00,
2013-02-03 03:42:00,-999.0,-99.9,-100.00,East,89,3.0,4.0,-999,-99.99,,,-99.99,,2013-02-03 08:42:00,
2013-02-03 03:52:00,-999.0,-99.9,-100.00,ENE,75,2.0,4.0,-999,-99.99,,,-99.99,,2013-02-03 08:52:00,
2013-02-03 04:03:00,25.0,-99.9,29.96,ENE,77,2.0,4.0,-999,-99.99,,,-99.99,,2013-02-03 09:03:00,
2013-02-03 04:11:00,-999.0,-99.9,-100.00,SE,136,2.0,4.0,-999,-99.99,,,-99.99,,2013-02-03 09:11:00,
2013-02-03 04:22:00,-999.0,-99.9,-100.00,ENE,77,2.0,3.0,-999,-99.99,,,-99.99,,2013-02-03 09:22:00,
2013-02-03 04:32:00,25.0,-99.9,29.95,East,97,1.0,2.0,-999,-99.99,,,-99.99,,2013-02-03 09:32:00,
2013-02-03 04:42:00,-999.0,-99.9,-100.00,East,91,2.0,4.0,-999,-99.99,,,-99.99,,2013-02-03 09:42:00,
2013-02-03 04:52:00,-999.0,-99.9,-100.00,ENE,65,2.0,4.0,-999,-99.99,,,-99.99,,2013-02-03 09:52:00,
2013-02-03 05:01:00,24.0,-99.9,29.94,ENE,64,3.0,5.0,-999,-99.99,,,-99.99,,2013-02-03 10:01:00,
2013-02-03 05:11:00,-999.0,-99.9,-100.00,ENE,63,3.0,4.0,-999,-99.99,,,-99.99,,2013-02-03 10:11:00,
2013-02-03 05:22:00,-999.0,-99.9,-100.00,ENE,68,2.0,4.0,-999,-99.99,,,-99.99,,2013-02-03 10:22:00,
2013-02-03 05:32:00,24.0,-99.9,29.93,ENE,62,4.0,5.0,-999,-99.99,,,-99.99,,2013-02-03 10:32:00,
2013-02-03 05:42:00,-999.0,-99.9,-100.00,ENE,67,4.0,6.0,-999,-99.99,,,-99.99,,2013-02-03 10:42:00,
2013-02-03 05:53:00,-999.0,-99.9,-100.00,ENE,72,3.0,4.0,-999,-99.99,,,-99.99,,2013-02-03 10:53:00,
2013-02-03 06:02:00,25.0,-99.9,29.92,ENE,76,3.0,4.0,-999,-99.99,,,-99.99,,2013-02-03 11:02:00,
2013-02-03 06:11:00,-999.0,-99.9,-100.00,ENE,65,2.0,4.0,-999,-99.99,,,-99.99,,2013-02-03 11:11:00,
2013-02-03 06:22:00,-999.0,-99.9,-100.00,NNE,15,6.0,10.0,-999,-99.99,,,-99.99,,2013-02-03 11:22:00,
2013-02-03 06:32:00,25.0,-99.9,29.93,NNE,24,6.0,11.0,-999,-99.99,,,-99.99,,2013-02-03 11:32:00,
2013-02-03 06:42:00,-999.0,-99.9,-100.00,NNE,23,6.0,9.0,-999,-99.99,,,-99.99,,2013-02-03 11:42:00,
2013-02-03 06:52:00,-999.0,-99.9,-100.00,NNE,25,6.0,9.0,-999,-99.99,,,-99.99,,2013-02-03 11:52:00,
2013-02-03 07:03:00,25.0,-99.9,29.93,NE,46,6.0,9.0,-999,-99.99,,,-99.99,,2013-02-03 12:03:00,
2013-02-03 07:12:00,-999.0,-99.9,-100.00,NE,39,5.0,9.0,-999,-99.99,,,-99.99,,2013-02-03 12:12:00,
2013-02-03 07:22:00,-999.0,-99.9,-100.00,ENE,74,4.0,6.0,-999,-99.99,,,-99.99,,2013-02-03 12:22:00,
2013-02-03 07:33:00,-999.0,-99.9,-100.00,ENE,67,4.0,7.0,-999,-99.99,,,-99.99,,2013-02-03 12:33:00,
2013-02-03 07:42:00,-999.0,-99.9,-100.00,ENE,57,4.0,5.0,-999,-99.99,,,-99.99,,2013-02-03 12:42:00,
2013-02-03 07:53:00,-999.0,-99.9,-100.00,NE,56,2.0,4.0,-999,-99.99,,,-99.99,,2013-02-03 12:53:00,
2013-02-03 08:04:00,24.0,-99.9,29.95,NE,51,2.0,4.0,-999,-99.99,,,-99.99,,2013-02-03 13:04:00,
2013-02-03 08:12:00,-999.0,-99.9,-100.00,ENE,64,1.0,3.0,-999,-99.99,,,-99.99,,2013-02-03 13:12:00,
2013-02-03 08:22:00,-999.0,-99.9,-100.00,ESE,107,1.0,3.0,-999,-99.99,,,-99.99,,2013-02-03 13:22:00,
2013-02-03 08:32:00,25.0,-99.9,29.95,SE,135,2.0,3.0,-999,-99.99,,,-99.99,,2013-02-03 13:32:00,
2013-02-03 08:42:00,-999.0,-99.9,-100.00,South,187,0.0,2.0,-999,-99.99,,,-99.99,,2013-02-03 13:42:00,
2013-02-03 08:53:00,-999.0,-99.9,-100.00,East,87,2.0,3.0,-999,-99.99,,,-99.99,,2013-02-03 13:53:00,
2013-02-03 09:03:00,-999.0,-99.9,-100.00,SE,132,3.0,5.0,-999,-99.99,,,-99.99,,2013-02-03 14:03:00,
2013-02-03 09:12:00,-999.0,-99.9,-100.00,ENE,74,2.0,4.0,-999,-99.99,,,-99.99,,2013-02-03 14:12:00,
2013-02-03 09:22:00,-999.0,-99.9,-100.00,ENE,75,2.0,4.0,-999,-99.99,,,-99.99,,2013-02-03 14:22:00,
2013-02-03 09:32:00,26.0,-99.9,29.93,NE,39,3.0,4.0,-999,-99.99,,,-99.99,,2013-02-03 14:32:00,
2013-02-03 09:43:00,-999.0,-99.9,-100.00,ENE,59,4.0,6.0,-999,-99.99,,,-99.99,,2013-02-03 14:43:00,
2013-02-03 09:52:00,-999.0,-99.9,-100.00,NE,35,5.0,6.0,-999,-99.99,,,-99.99,,2013-02-03 14:52:00,
2013-02-03 10:03:00,26.0,-99.9,29.93,East,82,4.0,5.0,-999,-99.99,,,-99.99,,2013-02-03 15:03:00,
2013-02-03 10:12:00,-999.0,-99.9,-100.00,NNE,15,4.0,7.0,-999,-99.99,,,-99.99,,2013-02-03 15:12:00,
2013-02-03 10:23:00,-999.0,-99.9,-100.00,ENE,61,4.0,7.0,-999,-99.99,,,-99.99,,2013-02-03 15:23:00,
2013-02-03 10:33:00,26.0,-99.9,29.91,NE,40,3.0,10.0,-999,-99.99,,,-99.99,,2013-02-03 15:33:00,
2013-02-03 10:42:00,-999.0,-99.9,-100.00,NE,47,6.0,8.0,-999,-99.99,,,-99.99,,2013-02-03 15:42:00,
2013-02-03 10:52:00,-999.0,-99.9,-100.00,NNE,21,5.0,7.0,-999,-99.99,,,-99.99,,2013-02-03 15:52:00,
2013-02-03 11:03:00,27.0,-99.9,29.91,NE,35,4.0,8.0,-999,-99.99,,,-99.99,,2013-02-03 16:03:00,
2013-02-03 11:12:00,-999.0,-99.9,-100.00,NNE,21,5.0,10.0,-999,-99.99,,,-99.99,,2013-02-03 16:12:00,
2013-02-03 11:22:00,-999.0,-99.9,-100.00,NNE,32,8.0,11.0,-999,-99.99,,,-99.99,,2013-02-03 16:22:00,
2013-02-03 11:33:00,27.0,-99.9,29.90,NNE,16,7.0,11.0,-999,-99.99,,,-99.99,,2013-02-03 16:33:00,
2013-02-03 11:42:00,-999.0,-99.9,-100.00,NNE,28,5.0,11.0,-999,-99.99,,,-99.99,,2013-02-03 16:42:00,
2013-02-03 11:52:00,-999.0,-99.9,-100.00,NNE,26,6.0,11.0,-999,-99.99,,,-99.99,,2013-02-03 16:52:00,
2013-02-03 12:03:00,27.0,-99.9,29.88,NNE,24,8.0,11.0,-999,-99.99,,,-99.99,,2013-02-03 17:03:00,
2013-02-03 12:12:00,-999.0,-99.9,-100.00,NNE,30,9.0,12.0,-999,-99.99,,,-99.99,,2013-02-03 17:12:00,
2013-02-03 12:22:00,-999.0,-99.9,-100.00,NNE,25,5.0,12.0,-999,-99.99,,,-99.99,,2013-02-03 17:22:00,
2013-02-03 12:32:00,28.0,-99.9,29.86,NE,36,7.0,11.0,-999,-99.99,,,-99.99,,2013-02-03 17:32:00,
2013-02-03 12:42:00,-999.0,-99.9,-100.00,NNE,32,7.0,12.0,-999,-99.99,,,-99.99,,2013-02-03 17:42:00,
2013-02-03 12:53:00,-999.0,-99.9,-100.00,NNE,22,4.0,10.0,-999,-99.99,,,-99.99,,2013-02-03 17:53:00,
2013-02-03 13:03:00,28.0,-99.9,29.84,NNE,33,5.0,9.0,-999,-99.99,,,-99.99,,2013-02-03 18:03:00,
2013-02-03 13:12:00,-999.0,-99.9,-100.00,NNE,25,4.0,7.0,-999,-99.99,,,-99.99,,2013-02-03 18:12:00,
2013-02-03 13:23:00,-999.0,-99.9,-100.00,NNE,31,4.0,7.0,-999,-99.99,,,-99.99,,2013-02-03 18:23:00,
2013-02-03 13:33:00,28.0,-99.9,29.83,NNE,14,4.0,6.0,-999,-99.99,,,-99.99,,2013-02-03 18:33:00,
2013-02-03 13:42:00,-999.0,-99.9,-100.00,NNE,15,2.0,4.0,-999,-99.99,,,-99.99,,2013-02-03 18:42:00,
2013-02-03 13:52:00,-999.0,-99.9,-100.00,NNE,28,3.0,4.0,-999,-99.99,,,-99.99,,2013-02-03 18:52:00,
2013-02-03 14:03:00,29.0,-99.9,29.81,NNE,24,1.0,5.0,-999,-99.99,,,-99.99,,2013-02-03 19:03:00,
2013-02-03 14:11:00,-999.0,-99.9,-100.00,North,4,2.0,3.0,-999,-99.99,,,-99.99,,2013-02-03 19:11:00,
2013-02-03 14:22:00,-999.0,-99.9,-100.00,North,356,1.0,3.0,-999,-99.99,,,-99.99,,2013-02-03 19:22:00,
2013-02-03 14:33:00,29.0,-99.9,29.80,NNE,24,2.0,4.0,-999,-99.99,,,-99.99,,2013-02-03 19:33:00,
2013-02-03 14:42:00,-999.0,-99.9,-100.00,West,272,2.0,2.0,-999,-99.99,,,-99.99,,2013-02-03 19:42:00,
2013-02-03 14:52:00,-999.0,-99.9,-100.00,NE,46,0.0,3.0,-999,-99.99,,,-99.99,,2013-02-03 19:52:00,
2013-02-03 15:02:00,-999.0,-99.9,-100.00,NNW,345,2.0,3.0,-999,-99.99,,,-99.99,,2013-02-03 20:02:00,
2013-02-03 15:12:00,-999.0,-99.9,-100.00,North,356,3.0,6.0,-999,-99.99,,,-99.99,,2013-02-03 20:12:00,
2013-02-03 15:22:00,-999.0,-99.9,-100.00,NNE,19,5.0,7.0,-999,-99.99,,,-99.99,,2013-02-03 20:22:00,
2013-02-03 15:33:00,31.0,-99.9,29.78,NNE,16,3.0,7.0,-999,-99.99,,,-99.99,,2013-02-03 20:33:00,
2013-02-03 15:42:00,-999.0,-99.9,-100.00,NNW,346,4.0,7.0,-999,-99.99,,,-99.99,,2013-02-03 20:42:00,
2013-02-03 15:52:00,-999.0,-99.9,-100.00,North,356,7.0,10.0,-999,-99.99,,,-99.99,,2013-02-03 20:52:00,
2013-02-03 16:04:00,30.0,-99.9,29.78,NNW,346,9.0,11.0,-999,-99.99,,,-99.99,,2013-02-03 21:04:00,
2013-02-03 16:11:00,-999.0,-99.9,-100.00,NNW,331,8.0,11.0,-999,-99.99,,,-99.99,,2013-02-03 21:11:00,
2013-02-03 16:22:00,-999.0,-99.9,-100.00,NNW,342,7.0,9.0,-999,-99.99,,,-99.99,,2013-02-03 21:22:00,
2013-02-03 16:33:00,30.0,-99.9,29.78,NNW,331,10.0,13.0,-999,-99.99,,,-99.99,,2013-02-03 21:33:00,
2013-02-03 16:43:00,-999.0,-99.9,-100.00,NNW,345,8.0,14.0,-999,-99.99,,,-99.99,,2013-02-03 21:43:00,
2013-02-03 16:52:00,-999.0,-99.9,-100.00,NW,313,11.0,15.0,-999,-99.99,,,-99.99,,2013-02-03 21:52:00,
2013-02-03 17:02:00,30.0,-99.9,29.78,NNW,331,11.0,15.0,-999,-99.99,,,-99.99,,2013-02-03 22:02:00,
2013-02-03 17:11:00,-999.0,-99.9,-100.00,NNW,332,13.0,15.0,-999,-99.99,,,-99.99,,2013-02-03 22:11:00,
2013-02-03 17:22:00,-999.0,-99.9,-100.00,NNW,329,11.0,14.0,-999,-99.99,,,-99.99,,2013-02-03 22:22:00,
2013-02-03 17:32:00,30.0,-99.9,29.77,NNW,332,9.0,12.0,-999,-99.99,,,-99.99,,2013-02-03 22:32:00,
2013-02-03 17:42:00,-999.0,-99.9,-100.00,NNW,341,10.0,14.0,-999,-99.99,,,-99.99,,2013-02-03 22:42:00,
2013-02-03 17:52:00,-999.0,-99.9,-100.00,NNW,331,7.0,10.0,-999,-99.99,,,-99.99,,2013-02-03 22:52:00,
2013-02-03 18:02:00,30.0,-99.9,29.78,NNW,338,9.0,12.0,-999,-99.99,,,-99.99,,2013-02-03 23:02:00,
2013-02-03 18:12:00,-999.0,-99.9,-100.00,NW,320,11.0,15.0,-999,-99.99,,,-99.99,,2013-02-03 23:12:00,
2013-02-03 18:22:00,-999.0,-99.9,-100.00,NW,321,12.0,13.0,-999,-99.99,,,-99.99,,2013-02-03 23:22:00,
2013-02-03 18:33:00,31.0,-99.9,29.78,NNW,327,14.0,17.0,-999,-99.99,,,-99.99,,2013-02-03 23:33:00,
2013-02-03 18:42:00,-999.0,-99.9,-100.00,NNW,335,12.0,16.0,-999,-99.99,,,-99.99,,2013-02-03 23:42:00,
2013-02-03 18:52:00,-999.0,-99.9,-100.00,NNW,327,11.0,15.0,-999,-99.99,,,-99.99,,2013-02-03 23:52:00,
2013-02-03 19:02:00,30.0,-99.9,29.78,NNW,343,10.0,15.0,-999,-99.99,,,-99.99,,2013-02-04 00:02:00,
2013-02-03 19:11:00,-999.0,-99.9,-100.00,NNW,337,9.0,14.0,-999,-99.99,,,-99.99,,2013-02-04 00:11:00,
2013-02-03 19:22:00,-999.0,-99.9,-100.00,NNW,330,10.0,15.0,-999,-99.99,,,-99.99,,2013-02-04 00:22:00,
2013-02-03 19:32:00,-999.0,-99.9,-100.00,NW,324,12.0,14.0,-999,-99.99,,,-99.99,,2013-02-04 00:32:00,
2013-02-03 19:42:00,-999.0,-99.9,-100.00,NNW,331,9.0,13.0,-999,-99.99,,,-99.99,,2013-02-04 00:42:00,
2013-02-03 19:52:00,-999.0,-99.9,-100.00,NNW,340,10.0,15.0,-999,-99.99,,,-99.99,,2013-02-04 00:52:00,
2013-02-03 20:01:00,29.0,-99.9,29.80,NNW,337,9.0,14.0,-999,-99.99,,,-99.99,,2013-02-04 01:01:00,
2013-02-03 20:11:00,-999.0,-99.9,-100.00,NW,320,10.0,13.0,-999,-99.99,,,-99.99,,2013-02-04 01:11:00,
2013-02-03 20:22:00,-999.0,-99.9,-100.00,NW,307,12.0,14.0,-999,-99.99,,,-99.99,,2013-02-04 01:22:00,
2013-02-03 20:32:00,29.0,-99.9,29.80,NW,311,11.0,13.0,-999,-99.99,,,-99.99,,2013-02-04 01:32:00,
2013-02-03 20:42:00,-999.0,-99.9,-100.00,NW,305,10.0,14.0,-999,-99.99,,,-99.99,,2013-02-04 01:42:00,
2013-02-03 20:52:00,-999.0,-99.9,-100.00,NW,308,9.0,12.0,-999,-99.99,,,-99.99,,2013-02-04 01:52:00,
2013-02-03 21:02:00,29.0,-99.9,29.80,NW,310,9.0,12.0,-999,-99.99,,,-99.99,,2013-02-04 02:02:00,
2013-02-03 21:11:00,-999.0,-99.9,-100.00,NW,320,8.0,11.0,-999,-99.99,,,-99.99,,2013-02-04 02:11:00,
2013-02-03 21:22:00,-999.0,-99.9,-100.00,NW,308,7.0,9.0,-999,-99.99,,,-99.99,,2013-02-04 02:22:00,
2013-02-03 21:32:00,29.0,-99.9,29.80,NW,308,11.0,13.0,-999,-99.99,,,-99.99,,2013-02-04 02:32:00,
2013-02-03 21:42:00,-999.0,-99.9,-100.00,NW,304,9.0,13.0,-999,-99.99,,,-99.99,,2013-02-04 02:42:00,
2013-02-03 21:52:00,-999.0,-99.9,-100.00,NW,307,9.0,12.0,-999,-99.99,,,-99.99,,2013-02-04 02:52:00,
2013-02-03 22:02:00,29.0,-99.9,29.80,NW,306,9.0,11.0,-999,-99.99,,,-99.99,,2013-02-04 03:02:00,
2013-02-03 22:11:00,-999.0,-99.9,-100.00,NW,315,8.0,11.0,-999,-99.99,,,-99.99,,2013-02-04 03:11:00,
2013-02-03 22:22:00,-999.0,-99.9,-100.00,NW,306,7.0,9.0,-999,-99.99,,,-99.99,,2013-02-04 03:22:00,
2013-02-03 22:32:00,29.0,-99.9,29.80,WNW,300,7.0,9.0,-999,-99.99,,,-99.99,,2013-02-04 03:32:00,
2013-02-03 22:42:00,-999.0,-99.9,-100.00,WNW,292,8.0,10.0,-999,-99.99,,,-99.99,,2013-02-04 03:42:00,
2013-02-03 22:52:00,-999.0,-99.9,-100.00,WNW,294,9.0,11.0,-999,-99.99,,,-99.99,,2013-02-04 03:52:00,
2013-02-03 23:02:00,29.0,-99.9,29.80,WNW,289,10.0,11.0,-999,-99.99,,,-99.99,,2013-02-04 04:02:00,
2013-02-03 23:11:00,-999.0,-99.9,-100.00,WNW,295,9.0,11.0,-999,-99.99,,,-99.99,,2013-02-04 04:11:00,
2013-02-03 23:22:00,-999.0,-99.9,-100.00,NW,306,9.0,11.0,-999,-99.99,,,-99.99,,2013-02-04 04:22:00,
2013-02-03 23:32:00,29.0,-99.9,29.79,NW,307,9.0,11.0,-999,-99.99,,,-99.99,,2013-02-04 04:32:00,
2013-02-03 23:42:00,-999.0,-99.9,-100.00,WNW,303,9.0,10.0,-999,-99.99,,,-99.99,,2013-02-04 04:42:00,
2013-02-03 23:52:00,-999.0,-99.9,-100.00,WNW,297,9.0,12.0,-999,-99.99,,,-99.99,,2013-02-04 04:52:00,